Main page
METAR-TAF:

METAR-TAF

Airports :

Qeshm, Iran

Qeshm International Airport

latitude: 26-45-18N, longitude: 055-54-08E, elevation: 12 m

Current weather observation

The report was made 23 minutes ago, at 20:00 UTC
Wind 6 kt from the North/Northwest
Temperature 16°C
Humidity 88%
Pressure 1021 hPa
Visibility: 7000 m

METAR: OIKQ 182000Z 33006KT 7000 NSC 16/14 Q1021

Time: 23:53 (20:23 UTC)


TAF: missing

Weather observations and forecasts of more than 4000 airports (METAR and TAF reports).

The available stations are represented by yellow and red dots on the map.

Hover mouse over dot to see the name of the station.

Then click to see weather observations and forecasts.

To change the map : click on the green buttons with a black cross to zoom in, on the green button with a dash to zoom out, or on the green arrows for adjacent maps.


METAR-TAF: